Temp
-3 -3 -3 -3 -3 -3 -4 -4 -4 -4 -4 -4 -4 -4 -4 -4 -4 -4 -4 -4 -4 -4 -4 -6 -6 -6 -5 -5 -5 -5 -6 -5 -5 -5 -5 -5 -5 -5 -5 -6 -5 -6 -5 -5 -6
-3 -3 -3 -3 -3 -3 -3 -3 -4 -4 -4 -4 -4 -4 -4 -4 -4 -4 -4 -4 -4 -4 -5 -5 -5 -4 -3 -7 -6 -6 -6 -5 -5 -5 -5 -5 -5 -5 -5 -5 -6 -5 -5 -6 -6
-3 -3 -3 -3 -3 -3 -3 -3 -3 -3 -3 -3 -3 -4 -4 -4 -4 -4 -4 -4 -4 -4 -4 -5 -3 -5 -6 -6 -6 -7 -5 -5 -5 -5 -5 -5 -5 -5 -5 -6 -6 -6 -6 -6 -6
-3 -3 -3 -3 -3 -3 -3 -3 -3 -3 -3 -3 -3 -3 -3 -3 -4 -4 -4 -4 -4 -4 -5 -4 -5 -6 -5 -5 -6 -6 -5 -5 -5 -5 -5 -5 -5 -5 -4 -5 -5 -6 -5 -6 -6
-3 -3 -3 -3 -2 -2 -2 -2 -3 -3 -3 -3 -3 -3 -3 -3 -3 -4 -4 -4 -4 -4 -5 -4 -5 -6 -6 -6 -6 -5 -6 -5 -5 -5 -4 -5 -4 -4 -5 -5 -5 -5 -6 -6 -6
-3 -3 -3 -2 -2 -2 -2 -2 -2 -2 -2 -2 -3 -3 -3 -3 -3 -3 -4 -4 -4 -4 -4 -4 -5 -6 -5 -5 -6 -5 -5 -5 -5 -4 -5 -4 -4 -5 -4 -4 -5 -5 -5 -5 -5
-3 -3 -3 -2 -2 -2 -2 -2 -2 -2 -2 -2 -2 -2 -3 -2 -3 -3 -3 -4 -4 -4 -4 -4 -4 -6 -6 -4 -7 -6 -5 -5 -5 -5 -5 -4 -5 -5 -5 -4 -5 -5 -5 -5 -5
-3 -3 -3 -2 -2 -2 -2 -2 -2 -2 -2 -2 -2 -2 -2 -2 -3 -2 -3 -3 -3 -4 -4 -4 -4 -5 -5 -6 -6 -6 -6 -4 -5 -5 -6 -5 -5 -4 -5 -5 -5 -5 -5 -4 -5
-3 -3 -3 -3 -3 -3 -2 -2 -2 -2 -3 -2 -2 -2 -2 -2 -3 -3 -3 -3 -3 -3 -4 -4 -4 -5 -5 -6 -6 -6 -6 -5 -5 -4 -6 -7 -6 -5 -6 -7 -5 -5 -5 -5 -5
-3 -3 -3 -3 -3 -3 -3 -3 -3 -3 -3 -3 -2 -3 -2 -2 -2 -3 -3 -3 -4 -3 -4 -4 -4 -4 -5 -6 -6 -6 -6 -5 -5 -6 -6 -7 -6 -6 -6 -7 -6 -6 -5 -5 -5
-4 -4 -4 -4 -4 -4 -4 -3 -3 -3 -3 -3 -3 -3 -3 -2 -3 -3 -3 -3 -3 -4 -3 -4 -5 -5 -5 -5 -6 -5 -6 -6 -6 -7 -6 -6 -6 -7 -7 -7 -7 -6 -6 -5 -5
-5 -5 -5 -4 -4 -4 -4 -4 -4 -4 -4 -3 -3 -3 -3 -3 -3 -3 -3 -3 -3 -4 -4 -4 -4 -6 -4 -5 -6 -6 -6 -6 -6 -6 -5 -6 -5 -7 -7 -6 -7 -7 -6 -5 -5
-6 -6 -5 -5 -5 -5 -5 -5 -5 -4 -4 -4 -4 -4 -4 -3 -4 -4 -4 -4 -3 -4 -4 -4 -4 -6 -7 -7 -6 -6 -6 -6 -6 -4 -5 -5 -5 -6 -6 -4 -5 -6 -6 -5 -5
-5 -6 -6 -5 -5 -6 -6 -6 -5 -5 -5 -5 -5 -5 -4 -4 -4 -4 -4 -4 -4 -4 -4 -4 -5 -6 -7 -7 -7 -6 -7 -6 -6 -6 -6 -6 -6 -6 -6 -6 -5 -6 -5 -5 -4
-5 -5 -5 -5 -5 -5 -6 -6 -6 -6 -5 -4 -5 -5 -5 -5 -4 -5 -4 -4 -4 -4 -4 -5 -5 -6 -7 -6 -6 -7 -7 -7 -6 -5 -7 -6 -6 -6 -6 -7 -5 -5 -5 -4 -4
-5 -5 -5 -5 -5 -5 -5 -6 -6 -6 -6 -6 -6 -6 -5 -6 -5 -5 -5 -5 -5 -5 -5 -5 -6 -7 -7 -7 -6 -7 -6 -7 -7 -7 -6 -6 -6 -6 -6 -6 -5 -5 -5 -4 -4
-5 -5 -5 -5 -5 -5 -5 -5 -6 -6 -7 -7 -7 -6 -6 -6 -6 -6 -6 -6 -6 -5 -5 -5 -5 -6 -7 -7 -7 -7 -6 -6 -6 -6 -6 -5 -5 -6 -7 -5 -4 -5 -5 -5 -5
-5 -5 -5 -5 -5 -5 -5 -5 -5 -6 -7 -7 -7 -7 -7 -6 -7 -6 -7 -6 -6 -6 -6 -6 -5 -6 -7 -7 -7 -7 -6 -6 -6 -4 -6 -7 -7 -5 -5 -5 -4 -5 -4 -5 -5
-5 -5 -5 -5 -5 -5 -5 -5 -6 -7 -6 -7 -8 -8 -8 -8 -7 -8 -7 -7 -6 -7 -6 -7 -6 -6 -6 -6 -6 -6 -6 -6 -6 -4 -6 -7 -6 -6 -6 -5 -4 -4 -5 -5 -6
-5 -5 -5 -6 -5 -5 -5 -5 -6 -6 -6 -6 -7 -8 -8 -8 -8 -7 -8 -8 -7 -7 -7 -7 -7 -7 -7 -6 -6 -6 -6 -6 -6 -5 -5 -6 -6 -6 -5 -4 -6 -7 -6 -7 -6
-5 -5 -5 -6 -6 -6 -6 -6 -6 -6 -7 -6 -6 -7 -7 -7 -8 -8 -7 -7 -8 -8 -8 -7 -7 -7 -6 -6 -7 -7 -6 -6 -6 -6 -6 -6 -5 -5 -7 -6 -7 -6 -6 -6 -6
-5 -5 -6 -6 -6 -6 -6 -7 -7 -8 -7 -6 -5 -6 -8 -7 -8 -8 -8 -8 -7 -7 -7 -8 -7 -7 -7 -7 -7 -7 -7 -7 -6 -5 -6 -6 -6 -6 -6 -6 -5 -5 -7 -7 -6
-6 -6 -6 -6 -7 -7 -7 -7 -8 -8 -9 -8 -6 -6 -7 -8 -7 -8 -8 -8 -7 -7 -7 -7 -7 -7 -7 -7 -7 -6 -6 -6 -7 -6 -6 -6 -6 -6 -6 -7 -6 -6 -6 -6 -6
-7 -7 -8 -9 -8 -8 -7 -8 -8 -8 -9 -9 -8 -7 -7 -7 -7 -8 -8 -8 -7 -7 -7 -7 -7 -7 -7 -6 -6 -6 -6 -6 -6 -6 -6 -6 -5 -6 -6 -6 -7 -7 -7 -6 -6
-10 -9 -11 -11 -11 -11 -10 -10 -10 -10 -9 -9 -8 -8 -9 -7 -8 -8 -8 -8 -8 -8 -7 -7 -7 -7 -7 -7 -7 -7 -6 -6 -6 -6 -6 -6 -5 -5 -6 -6 -6 -6 -7 -7 -7
-11 -11 -11 -12 -12 -12 -12 -12 -11 -12 -12 -12 -11 -10 -9 -10 -8 -8 -8 -7 -9 -8 -8 -8 -8 -8 -7 -7 -7 -7 -7 -6 -6 -6 -6 -6 -6 -6 -6 -6 -7 -7 -7 -7 -7
-12 -12 -12 -12 -12 -11 -12 -12 -12 -11 -12 -12 -11 -11 -12 -10 -9 -8 -8 -7 -8 -8 -8 -8 -8 -8 -7 -7 -7 -7 -7 -6 -6 -6 -6 -6 -6 -6 -6 -7 -7 -7 -7 -7 -7
Height
5921 5921 5921 5921 5921 5920 5920 5920 5919 5919 5919 5919 5918 5918 5917 5917 5917 5918 5918 5919 5916 5915 5913 5912 5911 5912 5913 5895 5889 5901 5906 5908 5908 5907 5910 5909 5908 5906 5905 5905 5904 5905 5904 5903 5904
5919 5919 5919 5919 5919 5919 5919 5918 5918 5918 5918 5917 5917 5917 5917 5917 5918 5918 5919 5919 5918 5915 5915 5912 5913 5914 5911 5907 5906 5910 5911 5911 5912 5913 5911 5911 5909 5908 5910 5908 5908 5907 5906 5906 5907
5917 5917 5917 5917 5917 5917 5918 5917 5916 5917 5917 5917 5916 5916 5916 5917 5918 5918 5918 5919 5917 5916 5917 5916 5915 5910 5909 5912 5915 5915 5914 5914 5915 5915 5915 5913 5913 5912 5912 5909 5911 5912 5911 5910 5910
5915 5914 5914 5914 5914 5914 5915 5915 5915 5916 5916 5916 5916 5916 5916 5916 5918 5917 5918 5918 5916 5916 5917 5920 5917 5912 5913 5919 5919 5920 5918 5917 5917 5917 5916 5915 5915 5915 5913 5913 5913 5914 5914 5913 5913
5912 5911 5911 5911 5910 5911 5911 5911 5913 5913 5914 5914 5915 5915 5916 5917 5917 5916 5917 5918 5917 5916 5917 5915 5914 5915 5919 5922 5922 5920 5920 5919 5918 5917 5917 5916 5917 5915 5913 5914 5915 5916 5916 5916 5916
5909 5908 5908 5907 5907 5907 5907 5908 5909 5909 5910 5911 5912 5913 5914 5916 5916 5916 5915 5917 5917 5917 5919 5917 5915 5917 5917 5915 5923 5921 5922 5920 5919 5919 5919 5919 5917 5917 5915 5917 5917 5917 5918 5917 5918
5905 5905 5904 5904 5904 5904 5904 5904 5905 5906 5906 5907 5908 5910 5912 5913 5915 5915 5915 5915 5917 5917 5918 5918 5914 5915 5918 5918 5922 5921 5922 5922 5921 5920 5921 5920 5919 5919 5918 5917 5918 5918 5918 5919 5919
5901 5901 5900 5899 5900 5900 5899 5900 5900 5901 5902 5903 5904 5905 5907 5910 5911 5913 5914 5914 5915 5917 5917 5921 5916 5918 5921 5920 5920 5922 5923 5922 5922 5923 5923 5924 5923 5923 5921 5920 5920 5920 5919 5919 5919
5896 5895 5895 5895 5895 5895 5895 5895 5895 5896 5897 5898 5899 5901 5902 5905 5907 5909 5911 5912 5912 5914 5916 5917 5916 5920 5922 5921 5922 5922 5925 5926 5926 5924 5925 5928 5928 5926 5924 5925 5923 5922 5921 5921 5920
5890 5890 5890 5890 5890 5890 5890 5890 5891 5891 5892 5892 5894 5897 5897 5899 5902 5905 5907 5908 5910 5911 5914 5916 5915 5918 5919 5919 5922 5925 5926 5927 5929 5927 5925 5929 5931 5929 5928 5928 5926 5924 5922 5921 5922
5885 5885 5885 5886 5886 5885 5886 5886 5887 5888 5886 5887 5889 5890 5890 5892 5897 5899 5901 5904 5906 5907 5911 5913 5914 5915 5916 5917 5920 5920 5924 5927 5927 5924 5922 5921 5929 5931 5928 5929 5928 5927 5924 5923 5923
5882 5881 5882 5882 5882 5882 5882 5882 5881 5883 5882 5882 5883 5885 5885 5888 5891 5893 5895 5899 5902 5905 5907 5908 5913 5914 5909 5914 5917 5920 5920 5921 5924 5924 5920 5915 5904 5923 5925 5923 5922 5927 5925 5926 5925
5881 5880 5879 5879 5879 5879 5878 5878 5878 5878 5878 5878 5878 5881 5879 5883 5885 5887 5890 5894 5896 5900 5902 5905 5913 5911 5911 5915 5918 5920 5917 5916 5916 5920 5921 5916 5916 5926 5924 5927 5926 5925 5926 5928 5927
5879 5878 5877 5877 5878 5877 5877 5876 5875 5875 5875 5877 5875 5874 5876 5877 5880 5881 5885 5888 5890 5894 5897 5900 5908 5908 5912 5913 5917 5916 5916 5912 5911 5916 5922 5920 5917 5924 5927 5927 5925 5923 5927 5927 5928
5875 5875 5875 5874 5875 5875 5875 5875 5874 5874 5873 5875 5873 5872 5871 5873 5875 5877 5880 5880 5885 5889 5893 5897 5901 5904 5909 5915 5919 5918 5917 5917 5902 5918 5921 5924 5925 5926 5923 5919 5927 5926 5929 5928 5928
5871 5871 5871 5871 5871 5872 5871 5872 5873 5874 5871 5869 5870 5870 5869 5870 5870 5872 5874 5877 5880 5883 5885 5890 5896 5899 5905 5909 5913 5914 5917 5919 5922 5921 5923 5924 5924 5924 5922 5924 5929 5929 5928 5928 5927
5866 5867 5867 5867 5867 5867 5867 5869 5871 5871 5873 5874 5871 5868 5868 5868 5867 5869 5871 5873 5876 5878 5880 5884 5888 5892 5898 5902 5907 5908 5912 5912 5914 5917 5917 5917 5920 5918 5918 5921 5921 5924 5926 5926 5926
5860 5861 5862 5862 5862 5862 5863 5865 5867 5869 5869 5869 5872 5866 5866 5867 5866 5866 5869 5872 5873 5875 5878 5881 5885 5889 5893 5896 5900 5902 5905 5907 5908 5913 5918 5908 5910 5912 5914 5917 5921 5919 5921 5921 5925
5854 5854 5853 5855 5855 5856 5857 5859 5863 5863 5862 5864 5867 5867 5865 5866 5867 5867 5867 5869 5871 5872 5874 5876 5881 5889 5893 5896 5897 5899 5898 5905 5905 5910 5911 5903 5910 5910 5912 5912 5914 5918 5917 5918 5920
5845 5845 5847 5848 5846 5848 5850 5855 5856 5856 5858 5857 5858 5862 5862 5868 5868 5868 5868 5868 5870 5870 5872 5875 5877 5881 5887 5891 5890 5890 5897 5899 5900 5904 5906 5907 5906 5909 5907 5908 5909 5910 5909 5914 5919
5837 5835 5838 5839 5838 5838 5841 5845 5846 5848 5846 5848 5851 5854 5856 5858 5861 5868 5868 5868 5868 5870 5871 5875 5876 5879 5881 5882 5886 5887 5888 5892 5895 5898 5900 5905 5905 5905 5905 5906 5901 5903 5892 5903 5919
5827 5826 5825 5826 5829 5828 5830 5833 5837 5839 5839 5838 5842 5846 5851 5853 5853 5856 5859 5865 5868 5868 5869 5871 5874 5875 5878 5882 5884 5886 5884 5886 5888 5894 5897 5902 5899 5905 5903 5901 5901 5901 5902 5912 5916
5815 5814 5813 5814 5816 5815 5816 5819 5822 5824 5827 5826 5830 5836 5838 5843 5846 5849 5851 5856 5862 5866 5865 5869 5869 5872 5873 5878 5881 5881 5882 5883 5884 5890 5892 5897 5899 5898 5901 5900 5901 5903 5907 5910 5912
5803 5802 5804 5804 5799 5803 5804 5805 5808 5810 5810 5811 5815 5824 5829 5833 5838 5842 5846 5847 5850 5856 5859 5862 5863 5865 5868 5872 5878 5877 5880 5881 5882 5883 5887 5892 5898 5890 5892 5893 5903 5901 5903 5906 5909
5794 5792 5793 5790 5791 5793 5793 5796 5797 5803 5804 5804 5803 5809 5817 5825 5827 5831 5831 5837 5842 5849 5853 5855 5857 5860 5864 5869 5872 5873 5875 5876 5876 5879 5881 5889 5896 5896 5897 5897 5893 5900 5901 5903 5905
5785 5785 5783 5784 5783 5784 5786 5788 5789 5791 5793 5798 5797 5800 5805 5807 5812 5818 5822 5825 5832 5836 5837 5845 5849 5855 5856 5860 5865 5866 5871 5872 5872 5875 5879 5884 5890 5893 5891 5890 5892 5893 5897 5899 5900
5776 5776 5775 5777 5775 5775 5777 5776 5777 5778 5782 5784 5783 5786 5793 5791 5793 5804 5812 5816 5823 5829 5833 5836 5839 5844 5850 5856 5860 5862 5865 5868 5871 5870 5874 5878 5885 5890 5887 5885 5887 5889 5891 5894 5897
Wind_Speed
10 9 10 9 6 6 7 10 11 10 9 9 8 7 4 6 8 9 13 14 16 16 16 20 17 11 17 28 19 18 14 17 13 13 12 13 17 20 20 18 17 14 11 11 8
12 11 10 10 9 7 7 8 8 8 8 8 8 6 4 2 4 7 10 12 14 13 14 20 20 16 16 31 25 15 8 12 8 7 9 12 15 16 19 21 23 23 19 16 12
14 13 12 12 11 10 8 7 8 6 5 5 5 4 3 3 2 3 6 8 11 12 14 15 3 6 11 22 15 21 10 5 5 7 5 8 11 12 12 18 18 19 20 21 25
14 15 14 15 14 12 11 10 9 9 8 7 5 4 2 1 0 2 3 5 7 8 7 4 7 17 14 11 4 8 4 1 1 3 4 7 8 7 9 12 12 12 14 16 18
12 12 13 13 13 13 13 13 12 12 11 10 9 8 5 3 2 3 2 3 3 5 9 7 17 16 11 11 6 6 6 2 5 5 6 6 5 7 8 10 8 8 8 11 14
13 13 13 13 13 13 12 12 12 14 14 13 13 11 9 5 6 3 5 3 2 1 8 5 19 0 6 15 4 7 7 6 7 8 10 7 9 7 7 8 5 5 6 8 10
16 16 15 15 13 15 13 14 14 13 14 15 17 15 13 11 9 7 6 8 4 3 0 5 9 9 5 8 4 7 6 5 12 11 7 8 10 3 7 9 6 5 6 6 8
18 18 18 17 17 15 15 14 15 15 15 16 16 17 18 14 14 12 11 9 8 6 4 5 5 2 8 13 7 8 3 8 12 5 8 8 9 6 12 9 8 6 5 6 7
20 19 19 19 19 19 18 18 17 18 17 17 18 19 19 18 20 19 15 14 13 9 8 8 5 9 4 10 11 15 5 8 6 11 11 6 8 11 10 6 6 6 6 5 6
20 19 18 18 18 18 19 20 20 19 18 19 20 19 22 23 20 19 20 19 17 15 12 11 10 6 14 11 6 10 7 7 2 5 12 10 8 10 11 8 8 8 7 7 7
17 18 17 16 15 16 17 18 19 18 19 20 18 17 22 22 18 22 23 24 23 22 16 15 14 6 8 8 8 2 7 7 8 14 12 12 6 4 8 9 9 6 7 8 7
10 11 12 13 13 14 16 16 18 17 17 19 18 17 20 18 17 23 25 24 25 22 21 23 13 12 12 5 9 11 8 11 10 7 7 16 18 12 9 8 9 3 6 5 8
7 7 7 7 7 8 9 10 11 13 12 18 18 15 20 17 17 20 21 22 27 27 27 25 15 14 10 10 12 9 15 20 17 17 6 8 5 17 11 11 4 4 4 3 3
10 8 8 7 7 7 7 7 7 9 11 7 9 11 17 17 14 20 19 24 27 30 31 29 22 23 12 18 17 10 14 17 6 11 13 12 16 15 13 5 6 7 3 3 0
12 12 11 10 9 9 9 9 9 11 14 8 5 6 9 12 16 16 19 23 25 28 33 29 26 25 18 16 15 23 11 14 25 14 14 15 21 20 15 6 1 4 8 7 3
12 12 11 11 12 13 12 11 9 9 11 17 16 9 11 10 10 16 15 18 21 27 33 33 29 30 26 24 25 25 24 15 13 15 19 18 24 28 26 14 2 4 6 7 8
15 15 14 13 13 13 13 13 11 6 3 15 21 16 8 11 10 13 10 12 18 25 31 34 36 36 26 30 24 29 27 21 21 14 18 17 23 25 1 12 8 16 8 6 7
21 22 21 20 19 17 16 14 9 8 8 6 20 29 17 7 8 10 11 11 15 21 24 30 30 35 30 28 30 30 24 27 24 10 12 26 31 32 15 9 4 15 8 6 3
24 24 25 23 25 24 23 18 8 15 20 21 11 16 13 18 16 9 13 9 15 17 21 15 11 5 10 15 22 25 34 24 25 20 18 34 26 18 24 8 8 13 13 8 4
28 29 27 25 28 28 27 19 16 21 25 26 26 19 14 10 19 16 15 14 11 12 10 18 17 19 13 19 22 23 22 28 24 24 25 22 27 23 23 10 11 16 21 7 4
31 33 32 29 31 32 30 25 25 26 32 30 27 26 25 23 20 21 21 17 18 16 14 19 20 18 15 18 20 22 20 34 28 25 25 19 25 30 21 11 20 15 6 5 8
31 33 34 33 32 34 33 30 30 30 36 38 32 28 30 26 29 27 25 24 15 19 17 20 23 18 12 18 22 23 30 22 36 30 27 18 27 22 15 10 15 8 2 12 17
34 33 35 34 33 36 39 40 37 37 41 44 40 32 36 37 33 29 26 26 16 22 25 19 28 25 20 22 24 18 10 15 17 30 34 25 19 26 13 8 6 8 11 18 20
31 32 29 26 34 32 35 40 43 47 49 53 50 40 38 38 40 34 25 19 23 26 29 24 29 31 28 24 12 24 18 17 14 26 32 28 19 27 27 6 17 23 16 17 17
29 30 25 27 24 23 26 27 32 35 49 53 56 49 42 43 45 42 36 30 24 28 30 32 28 24 19 19 17 20 18 18 19 15 29 13 23 16 12 22 23 12 13 19 19
28 26 22 21 25 24 22 22 25 27 35 39 36 44 48 43 50 50 46 43 36 36 38 29 34 25 31 29 23 21 15 14 17 18 25 21 21 13 18 17 10 11 19 25 25
30 28 27 24 26 26 29 28 27 32 33 36 46 52 43 52 56 57 56 51 44 35 36 33 21 23 38 32 26 23 17 27 23 25 20 34 29 19 16 16 11 15 18 20 19
Wind_Direction
286 293 298 298 305 303 293 274 276 289 300 309 321 338 343 23 35 42 63 73 78 87 97 96 87 87 36 24 36 46 63 50 44 38 55 53 57 59 59 66 64 59 64 63 61
282 285 289 290 292 297 302 300 279 277 293 303 300 312 320 292 10 27 47 74 87 88 109 126 108 78 39 31 28 50 9 24 50 43 40 55 63 52 65 71 72 63 65 69 66
286 283 281 281 280 279 278 287 288 277 279 304 313 294 303 282 282 352 47 54 70 85 109 128 82 120 44 72 8 340 324 342 23 53 44 58 62 70 67 69 63 61 65 62 58
284 283 284 282 279 277 273 269 273 275 268 268 273 285 304 31 291 266 29 63 54 61 88 233 57 98 82 77 75 348 14 345 63 91 83 72 69 76 86 81 69 59 50 54 52
291 287 285 284 283 280 273 266 264 263 265 261 261 262 272 278 249 224 242 104 52 36 69 341 96 82 78 50 241 22 28 52 95 96 92 90 91 69 60 67 65 64 59 48 54
299 296 292 288 286 283 279 275 265 259 256 256 258 257 259 255 254 232 237 208 156 337 80 108 116 356 170 78 341 260 45 52 72 72 62 83 79 59 54 80 79 71 60 65 58
295 293 292 292 292 287 281 278 271 262 258 252 250 251 251 246 227 222 227 248 194 223 309 170 151 228 0 71 248 216 50 99 74 82 67 82 81 71 62 41 53 70 74 72 80
290 288 287 290 289 286 286 279 276 269 261 255 252 249 245 247 221 232 230 229 246 214 227 250 155 72 154 135 187 207 202 118 101 96 79 58 89 84 72 34 31 36 70 85 84
285 283 282 280 279 279 280 280 275 272 268 262 254 247 245 242 229 236 231 225 233 227 211 232 205 134 168 205 194 226 207 319 94 113 112 40 62 61 66 31 26 22 33 56 78
282 279 279 278 276 275 276 275 275 273 271 263 257 253 244 239 237 234 227 225 227 228 214 219 231 179 197 211 199 293 308 267 145 127 136 124 77 48 45 18 6 18 34 44 55
284 277 275 274 273 272 275 277 275 274 266 265 264 252 250 240 232 230 226 221 222 225 219 215 221 224 226 252 288 323 340 5 170 189 187 149 119 111 93 45 19 28 37 52 70
295 279 270 268 270 271 272 274 274 272 270 265 266 257 262 249 227 231 230 222 221 223 219 221 194 188 230 288 350 346 338 280 271 213 136 174 204 157 115 112 120 70 61 59 87
314 302 292 285 283 282 280 282 284 283 270 272 269 253 260 251 237 233 231 224 221 217 221 224 185 170 265 297 302 315 316 301 347 358 334 360 280 340 29 50 81 103 90 57 73
292 291 296 297 298 296 296 295 297 297 293 301 287 267 256 246 239 230 227 225 218 216 217 223 200 180 196 282 287 348 308 289 282 28 349 349 283 320 334 20 20 94 94 100 44
286 281 278 284 287 289 291 295 302 309 311 304 317 308 276 254 244 241 218 226 220 217 218 215 207 183 189 201 273 267 284 314 300 317 312 293 285 292 285 354 282 64 63 77 91
285 287 284 280 278 276 276 282 293 308 322 325 343 331 312 267 249 236 227 222 215 216 219 215 199 184 199 210 218 242 214 236 266 284 277 258 271 281 252 281 93 172 100 70 88
281 282 284 284 279 278 274 272 273 285 26 334 319 316 326 294 251 244 217 240 225 223 220 219 210 199 199 217 217 238 220 229 240 240 277 287 293 260 238 45 186 167 160 127 86
278 277 275 276 275 275 275 273 270 230 147 144 286 298 307 323 247 256 218 227 228 226 223 229 230 217 201 213 229 228 237 227 247 197 260 277 289 313 317 270 173 165 159 102 62
278 275 273 272 270 267 265 266 244 204 226 192 194 282 299 307 331 314 283 240 234 226 230 192 188 59 249 267 260 253 242 223 246 208 248 288 305 311 314 136 206 225 190 72 71
278 275 272 268 269 264 263 260 239 230 234 225 209 213 199 252 284 307 283 303 297 226 217 194 204 208 246 249 262 275 235 225 233 232 237 286 297 314 288 308 167 182 193 90 108
279 277 275 271 267 265 261 251 242 235 234 237 231 216 224 182 201 256 280 277 276 292 255 194 213 186 205 248 254 267 247 221 221 221 244 264 292 282 299 250 200 207 197 23 311
281 278 277 270 261 260 257 245 237 229 234 243 246 219 224 213 199 220 211 237 243 265 261 227 213 195 192 229 248 274 257 240 227 223 225 241 278 286 294 308 253 336 357 263 285
284 280 278 274 266 257 252 245 228 222 227 239 241 232 216 216 210 217 220 217 207 246 242 233 230 209 191 207 249 275 339 272 240 231 219 218 258 288 277 300 148 182 218 259 270
287 285 282 274 268 264 260 248 238 229 220 226 235 229 225 215 215 204 220 182 203 235 240 238 233 234 204 206 249 271 286 284 289 235 227 217 203 277 311 321 228 227 236 258 268
285 286 282 281 275 262 260 255 251 248 244 234 231 225 224 225 209 212 203 185 188 213 238 245 248 218 203 207 241 228 264 273 278 259 224 202 220 261 265 248 252 249 201 225 245
281 276 272 261 265 262 264 260 251 244 239 234 245 241 226 217 215 210 201 191 200 208 213 220 239 230 203 210 209 231 224 250 270 274 218 190 206 259 256 271 225 253 239 239 249
276 270 259 261 258 254 251 249 246 249 245 246 241 244 242 222 213 211 206 198 208 217 216 218 214 215 217 205 209 212 235 223 242 259 261 196 207 203 243 267 264 259 267 278 270